[[{"header":{"parameterUnit":"m.s-1","parameterCategory":1,"la1":30.2991,"la2":30.254,"lo1":-89.0895,"lo2":-89.0444,"dy":0.0017,"dx":0.0017,"nx":28,"ny":28,"refTime":"2024-08-23T21:00:00:Z","depth":0,"parameterNumber":2,"parameterNumberName":"U-component_of_WINDS"},"data":[0,0,0,0,0,0,0,0,0,0,0,0,0,0,0,0,0,0,0,0,0,0,0,0,0,0,0,0,0,0,0,0,0,0,0,0,0,0,0,0,0,0,0,0,0,0,0,0,0,0,0,0,0,0,0,0,0,0,-4.5333,-4.5334,0,-4.5446,-4.5447,-4.5449,-4.532,-4.5316,-4.5311,-4.5306,-4.5426,-4.5433,-4.5441,0,0,0,0,0,0,0,0,0,0,0,0,0,-4.5007,-4.5014,-4.5333,-4.5334,-4.5335,-4.5446,-4.5447,-4.5449,-4.5321,-4.5315,-4.5309,-4.5304,-4.5423,-4.5432,-4.5442,0,0,0,0,0,0,0,0,0,0,0,0,0,-4.5138,-4.5016,-4.5332,-4.5285,-4.5282,-4.5446,-4.5448,-4.5449,-4.5322,-4.5315,-4.5308,-4.5301,-4.542,-4.5431,-4.5443,-4.566,0,0,-4.5478,-4.5483,0,0,0,0,0,0,0,0,-4.513,-4.515,-4.529,-4.5288,-4.5285,-4.5361,-4.5376,-4.552,-4.5324,-4.5307,-4.5306,-4.5298,-4.5411,-4.5422,-4.546,-4.5666,-4.5671,-4.5479,-4.5486,-4.5491,-4.5494,0,0,0,0,0,0,0,-4.5122,-4.5144,-4.5377,-4.5293,-4.529,-4.5259,-4.5269,-4.5403,-4.5398,-4.5308,-4.5299,-4.5314,-4.5408,-4.5449,-4.5462,-4.5672,-4.5479,-4.5489,-4.5496,-4.5501,-4.6062,-4.6069,0,0,0,0,0,0,-4.5118,-4.5137,-4.5374,-4.5381,-4.5188,-4.527,-4.5282,-4.5344,-4.5397,-4.5397,-4.532,-4.5308,-4.5433,-4.5448,-4.5465,-4.5723,-4.5491,-4.5502,-4.5509,-4.6054,-4.6064,-4.6072,0,0,0,0,0,0,-4.5111,-4.514,-4.5369,-4.5257,-4.5284,-4.5284,-4.5355,-4.5351,-4.5392,-4.5406,-4.5404,-4.5363,-4.5428,-4.5449,-4.5612,-4.5725,-4.5507,-4.5518,-4.6045,-4.6057,-4.6068,-4.624,0,0,0,0,0,0,-4.5102,-4.5138,-4.522,-4.526,-4.529,-4.5514,-4.5362,-4.5358,-4.5411,-4.5396,-4.5446,-4.5447,-4.5424,-4.5596,-4.5624,-4.5737,-4.5527,-4.6034,-4.605,-4.6064,-4.6225,-4.6257,-4.6284,0,0,0,0,0,-4.5091,-4.5265,-4.5225,-4.5254,-4.5393,-4.5521,-4.5538,-4.5507,-4.5421,-4.5504,-4.5513,-4.5445,-4.5708,-4.5613,-4.5644,-4.5763,-4.6027,-4.6046,-4.6063,-4.6211,-4.625,-4.6283,0,0,0,0,0,0,-4.5241,-4.5269,-4.5225,-4.5417,-4.5468,-4.5499,-4.5602,-4.555,-4.5626,-4.5609,-4.5568,-4.558,-4.5754,-4.5774,-4.5668,-4.5976,-4.5854,-4.5879,-4.5956,-4.5993,-4.6023,-4.6014,-4.5536,0,0,0,0,0,-4.5296,-4.5397,-4.5417,-4.5584,-4.5611,-4.5603,-4.5658,-4.5629,-4.568,-4.5701,-4.5722,-4.5775,-4.5869,-4.5932,-4.6019,-4.6226,-4.6236,-4.6323,-4.6353,-4.6377,-4.64,-4.6511,-4.655,-4.6131,-4.6131,-4.6131,0,0,-4.5411,-4.5439,-4.5506,-4.5615,-4.565,-4.5756,-4.5622,-4.574,-4.5818,-4.5719,-4.5874,-4.5892,-4.5948,-4.6134,-4.6217,-4.6156,-4.6517,-4.64,-4.642,-4.6429,-4.6533,-4.6573,-4.6608,-4.6143,-4.6141,-4.6139,0,0,-4.5675,-4.5707,-4.5849,-4.5887,-4.5942,-4.5935,-4.597,-4.601,-4.6017,-4.6171,-4.6099,-4.6192,-4.6356,-4.6398,-4.6442,-4.6722,-4.6663,-4.6752,-4.6908,-4.7017,-4.705,-4.7079,-4.7179,-4.7216,-4.6774,-4.6774,-4.6774,0,-4.5812,-4.5968,-4.593,-4.6053,-4.6103,-4.6016,-4.6161,-4.62,-4.6282,-4.6319,-4.625,-4.6452,-4.6484,-4.6679,-4.6747,-4.6785,-4.6824,-4.6746,-4.7048,-4.7077,-4.7103,-4.7199,-4.7236,-4.6784,-4.6783,-4.6782,-4.6781,0,-4.6134,-4.6243,-4.6352,-4.6432,-4.6494,-4.6628,-4.661,-4.6678,-4.6644,-4.6645,-4.6803,-4.6838,-4.6931,-4.6975,-4.6944,-4.7166,-4.7127,-4.7054,-4.6931,-4.7154,-4.7243,-4.7279,-4.6799,-4.6796,-4.6793,-4.679,0,0,-4.6496,-4.6552,-4.6593,-4.6628,-4.6682,-4.6766,-4.6896,-4.6985,-4.7045,-4.7104,-4.7212,-4.7352,-4.7284,-4.7334,-4.7306,-4.7401,-4.7621,-4.7316,-4.7317,-4.7372,-4.7869,-4.7925,-4.7967,-4.7582,-4.7589,-4.7594,-4.7865,0,-4.6762,-4.6985,-4.6954,-4.717,-4.727,-4.7189,-4.7302,-4.7348,-4.7352,-4.7439,-4.7443,-4.7544,-4.7446,-4.7475,-4.7566,-4.7576,-4.7721,-4.7555,-4.7683,-4.7689,-4.7673,-4.8014,-4.8073,-4.8326,-4.7899,-4.7905,-4.7909,0,-4.7102,-4.7172,-4.7397,-4.7435,-4.7476,-4.7578,-4.7658,-4.7741,-4.7792,-4.7788,-4.7843,-4.7798,-4.7929,-4.7802,-4.7982,-4.787,-4.7921,-4.7933,-4.7942,-4.7954,-4.7813,-4.8035,-4.8406,-4.8445,-4.7964,-4.7959,-4.7955,0,-4.7344,-4.7495,-4.7649,-4.7682,-4.773,-4.7803,-4.7827,-4.787,-4.7926,-4.7996,-4.8031,-4.8116,-4.8163,-4.823,-4.821,-4.812,-4.8395,-4.8266,-4.8396,-4.8397,-4.8458,-4.8455,-4.8844,-4.849,-4.8489,-4.8489,-4.8488,0,-4.7644,-4.7786,-4.7759,-4.7854,-4.801,-4.7972,-4.8128,-4.8142,-4.8181,-4.8277,-4.8213,-4.8305,-4.8272,-4.8363,-4.8348,-4.8499,-4.8521,-4.8522,-4.8516,-4.8528,-4.8528,-4.8561,-4.8543,-4.8499,-4.8496,-4.8494,-4.8493,0,-4.7942,-4.793,-4.8092,-4.8124,-4.8135,-4.8249,-4.8276,-4.8366,-4.8364,-4.8487,-4.8514,-4.8513,-4.8616,-4.8602,-4.8718,-4.8707,-4.8896,-4.8869,-4.8879,-4.8873,-4.9003,-4.8991,-4.9427,-4.9483,-4.9093,-4.9097,-4.91,0,-4.8135,-4.8241,-4.8284,-4.8344,-4.8372,-4.8469,-4.8525,-4.8493,-4.8554,-4.862,-4.8702,-4.8799,-4.8875,-4.9045,-4.9054,-4.9142,-4.9117,-4.9264,-4.913,-4.9139,-4.912,-4.9114,-4.9125,-4.9291,-4.9295,-4.9299,-4.9302,0,-4.8478,-4.8467,-4.855,-4.8631,-4.87,-4.8763,-4.8819,-4.8872,-4.8845,-4.8917,-4.9022,-4.9081,-4.9198,-4.9296,-4.9379,-4.9403,-4.935,-4.9344,-4.9378,-4.9392,-4.9393,-4.9395,-4.8952,-4.9334,-4.9331,-4.9328,-4.9327,-4.9325,-4.873,-4.882,-4.8864,-4.8959,-4.8998,-4.9052,-4.9138,-4.9146,-4.9232,-4.9324,-4.93,-4.9419,-4.9466,-4.9571,-4.9605,-4.9698,-4.9644,-4.9695,-4.9707,-4.972,-4.9736,-4.9378,-4.9713,-4.9712,-4.9711,-4.971,-4.971,0,-4.907,-4.9094,-4.9181,-4.9262,-4.9337,-4.9277,-4.9336,-4.9403,-4.9508,-4.9556,-4.9632,-4.9752,-4.9846,-4.9863,-4.9953,-5.0024,-5.0002,-5.0049,-5.0044,-5.0051,-4.9779,-4.974,-5.0066,-5.0066,-5.0066,-5.0066,-5.0066,-5.0066,-4.9256,-4.9406,-4.94,-4.9569,-4.9592,-4.9706,-4.9745,-4.9795,-4.9833,-4.997,-5.0048,-5.0057,-5.0094,-5.0185,-5.027,-5.0272,-5.0309,-5.0366,-5.036,-5.0105,-5.007,-5.0036,-4.9999,-5.0374,-5.0375,-5.0624,-5.0626,-5.0628]},{"header":{"parameterUnit":"m.s-1","parameterCategory":1,"la1":30.2991,"la2":30.254,"lo1":-89.0895,"lo2":-89.0444,"dy":0.0017,"dx":0.0017,"nx":28,"ny":28,"refTime":"2024-08-23T21:00:00:Z","depth":0,"parameterNumber":3,"parameterNumberName":"V-component_of_WINDS"},"data":[0,0,0,0,0,0,0,0,0,0,0,0,0,0,0,0,0,0,0,0,0,0,0,0,0,0,0,0,0,0,0,0,0,0,0,0,0,0,0,0,0,0,0,0,0,0,0,0,0,0,0,0,0,0,0,0,0,0,-2.9953,-2.9953,0,-2.994,-2.994,-2.994,-2.9895,-2.9894,-2.9893,-2.9892,-2.9878,-2.9879,-2.9879,0,0,0,0,0,0,0,0,0,0,0,0,0,-2.9937,-2.9937,-2.9953,-2.9953,-2.9952,-2.994,-2.994,-2.994,-2.9895,-2.9894,-2.9893,-2.9891,-2.9878,-2.9879,-2.9879,0,0,0,0,0,0,0,0,0,0,0,0,0,-2.9936,-2.9937,-2.9953,-2.9929,-2.9926,-2.994,-2.994,-2.994,-2.9895,-2.9894,-2.9892,-2.9891,-2.9878,-2.9879,-2.9879,-2.9915,0,0,-2.9882,-2.9882,0,0,0,0,0,0,0,0,-2.9936,-2.9936,-2.9932,-2.993,-2.9928,-2.9917,-2.9929,-2.9931,-2.9896,-2.9907,-2.9892,-2.989,-2.9892,-2.9892,-2.9893,-2.9914,-2.9914,-2.9882,-2.9883,-2.9883,-2.9883,0,0,0,0,0,0,0,-2.9936,-2.9937,-2.9948,-2.9932,-2.993,-2.9918,-2.9916,-2.9929,-2.9908,-2.9906,-2.9903,-2.9902,-2.9891,-2.9892,-2.9892,-2.9914,-2.9882,-2.9883,-2.9883,-2.9884,-2.9961,-2.9963,0,0,0,0,0,0,-2.994,-2.9937,-2.9948,-2.9947,-2.9928,-2.9919,-2.9917,-2.9922,-2.9908,-2.9905,-2.9903,-2.99,-2.9891,-2.9891,-2.9892,-2.993,-2.9883,-2.9884,-2.9884,-2.996,-2.9962,-2.9963,0,0,0,0,0,0,-2.994,-2.9941,-2.9949,-2.9941,-2.9941,-2.9921,-2.9927,-2.9923,-2.9924,-2.9906,-2.9902,-2.9908,-2.989,-2.989,-2.9909,-2.9929,-2.9884,-2.9885,-2.9958,-2.996,-2.9962,-3.001,0,0,0,0,0,0,-2.9939,-2.9941,-2.9955,-2.9942,-2.9942,-2.9967,-2.9928,-2.9924,-2.9926,-2.9921,-2.991,-2.9906,-2.9889,-2.9908,-2.991,-2.993,-2.9886,-2.9956,-2.9959,-2.9962,-3.0006,-3.0013,-3.002,0,0,0,0,0,-2.9939,-2.997,-2.9956,-2.9958,-2.9959,-2.9968,-2.9968,-2.9948,-2.9928,-2.9941,-2.9929,-2.9907,-2.9927,-2.991,-2.9912,-2.9933,-2.9955,-2.9958,-2.9961,-3.0003,-3.0012,-3.0019,0,0,0,0,0,0,-2.9986,-2.9967,-2.9952,-2.998,-2.9976,-2.9961,-2.9977,-2.9958,-2.996,-2.9955,-2.993,-2.9927,-2.9949,-2.9943,-2.9924,-2.9965,-2.9937,-2.9941,-2.9968,-2.9976,-2.9983,-2.9983,-2.9886,0,0,0,0,0,-3.0,-3.0009,-2.9992,-3.0018,-3.0017,-2.9997,-3.0001,-2.9985,-2.998,-2.9978,-2.9968,-2.9963,-2.9968,-2.9972,-2.9976,-3.0005,-3.0001,-3.002,-3.0027,-3.0032,-3.0036,-3.0049,-3.0056,-2.9975,-2.9975,-2.9974,0,0,-3.0028,-3.0019,-3.0027,-3.0027,-3.0022,-3.0032,-2.9996,-3.0008,-3.0015,-2.998,-2.9996,-2.9988,-2.9982,-3.0005,-3.0015,-3.0001,-3.0057,-3.0037,-3.0041,-3.0042,-3.0053,-3.0061,-3.0068,-2.9977,-2.9976,-2.9976,0,0,-3.0084,-3.0079,-3.0098,-3.0094,-3.0087,-3.0073,-3.0078,-3.0066,-3.0059,-3.0075,-3.0048,-3.0055,-3.0065,-3.0061,-3.006,-3.0112,-3.0091,-3.0115,-3.0149,-3.0161,-3.0168,-3.0173,-3.019,-3.0197,-3.0118,-3.0118,-3.0118,0,-3.0119,-3.0133,-3.0111,-3.0124,-3.0124,-3.0093,-3.0112,-3.0109,-3.0103,-3.0104,-3.0088,-3.0098,-3.0092,-3.0113,-3.0125,-3.0126,-3.013,-3.0115,-3.0169,-3.0174,-3.0179,-3.0195,-3.0201,-3.0121,-3.0121,-3.012,-3.012,0,-3.0176,-3.0186,-3.0203,-3.0198,-3.02,-3.0216,-3.0196,-3.0201,-3.0185,-3.0173,-3.0188,-3.0179,-3.018,-3.0184,-3.0169,-3.0202,-3.0193,-3.0174,-3.0145,-3.019,-3.0204,-3.021,-3.0125,-3.0124,-3.0123,-3.0122,0,0,-3.0261,-3.0243,-3.0249,-3.0246,-3.0235,-3.0242,-3.0256,-3.0256,-3.026,-3.0257,-3.0267,-3.0276,-3.0257,-3.0256,-3.024,-3.0251,-3.0291,-3.023,-3.0229,-3.024,-3.0325,-3.0338,-3.0346,-3.0277,-3.0278,-3.0279,-3.0324,0,-3.0313,-3.0336,-3.0315,-3.0342,-3.0349,-3.0319,-3.0331,-3.0325,-3.0314,-3.0319,-3.0306,-3.0312,-3.0288,-3.0286,-3.0297,-3.0284,-3.0307,-3.028,-3.0285,-3.0285,-3.0286,-3.0353,-3.0368,-3.0411,-3.033,-3.0331,-3.0332,0,-3.0376,-3.0375,-3.0402,-3.0387,-3.039,-3.0401,-3.0398,-3.0404,-3.0396,-3.0387,-3.0385,-3.0365,-3.0377,-3.035,-3.0364,-3.0347,-3.0347,-3.0341,-3.0342,-3.0341,-3.031,-3.0352,-3.0425,-3.0431,-3.0341,-3.034,-3.0339,0,-3.0432,-3.0438,-3.0454,-3.0453,-3.0437,-3.0445,-3.0439,-3.043,-3.043,-3.0428,-3.0428,-3.0428,-3.0427,-3.0427,-3.0407,-3.0389,-3.0423,-3.0395,-3.0415,-3.0415,-3.0422,-3.0422,-3.0495,-3.0426,-3.0426,-3.0426,-3.0426,0,-3.0491,-3.0508,-3.0479,-3.0489,-3.0507,-3.0484,-3.0502,-3.0492,-3.0484,-3.0491,-3.0465,-3.0472,-3.0446,-3.045,-3.0435,-3.0448,-3.0448,-3.044,-3.0436,-3.0442,-3.0442,-3.0441,-3.0436,-3.0428,-3.0427,-3.0427,-3.0427,0,-3.0557,-3.0539,-3.0554,-3.0537,-3.0534,-3.0547,-3.0533,-3.0541,-3.0528,-3.0536,-3.0537,-3.0517,-3.0519,-3.05,-3.05,-3.0489,-3.0509,-3.05,-3.0512,-3.0508,-3.0528,-3.0526,-3.0601,-3.0609,-3.0537,-3.0538,-3.0539,0,-3.0594,-3.0607,-3.0591,-3.0594,-3.0588,-3.0593,-3.0594,-3.0571,-3.0572,-3.0563,-3.0572,-3.0573,-3.0572,-3.0578,-3.0562,-3.0561,-3.0551,-3.0578,-3.0551,-3.0556,-3.0549,-3.0548,-3.0548,-3.0583,-3.0584,-3.0584,-3.0585,0,-3.0662,-3.0652,-3.0654,-3.0652,-3.0653,-3.065,-3.0646,-3.0649,-3.0624,-3.0627,-3.0629,-3.0629,-3.0628,-3.0628,-3.0624,-3.0617,-3.0596,-3.0594,-3.0598,-3.0603,-3.0608,-3.0604,-3.0525,-3.0592,-3.0591,-3.0591,-3.059,-3.059,-3.0714,-3.0722,-3.0712,-3.0714,-3.0708,-3.0705,-3.071,-3.0698,-3.07,-3.0697,-3.0683,-3.0688,-3.0678,-3.067,-3.0665,-3.0667,-3.0654,-3.0661,-3.0662,-3.0664,-3.0667,-3.061,-3.0667,-3.0667,-3.0666,-3.0666,-3.0666,0,-3.0778,-3.077,-3.0772,-3.0766,-3.0768,-3.0749,-3.0742,-3.0745,-3.0749,-3.0742,-3.0741,-3.0743,-3.0743,-3.0728,-3.0725,-3.073,-3.0721,-3.073,-3.0729,-3.0727,-3.0679,-3.0675,-3.0738,-3.0738,-3.0738,-3.0738,-3.0738,-3.0738,-3.0812,-3.0825,-3.0814,-3.0823,-3.0814,-3.0818,-3.0816,-3.0812,-3.0806,-3.0809,-3.0809,-3.0799,-3.0788,-3.0784,-3.0783,-3.0778,-3.0778,-3.079,-3.0782,-3.0738,-3.0731,-3.0724,-3.072,-3.0791,-3.0791,-3.0829,-3.083,-3.083]}]]